Time,TemperatureF,DewpointF,PressureIn,WindDirection,WindDirectionDegrees,WindSpeedMPH,WindSpeedGustMPH,Humidity,HourlyPrecipIn,Conditions,Clouds,dailyrainin,SolarRadiationWatts/m^2,SoftwareType,DateUTC
2013-02-28 00:00:00,39.7,31.8,29.89,WNW,293,7.0,10.0,73,0.00,,,0.05,0,Wunderground v.1.15,2013-02-28 05:00:00,
2013-02-28 00:01:00,39.7,31.8,29.89,WNW,290,10.0,10.0,73,0.00,,,0.00,0,Wunderground v.1.15,2013-02-28 05:01:00,
2013-02-28 00:03:00,39.6,31.7,29.89,WSW,248,12.0,12.0,73,0.00,,,0.00,0,Wunderground v.1.15,2013-02-28 05:03:00,
2013-02-28 00:08:00,39.4,31.5,29.89,West,273,11.0,16.0,73,0.00,,,0.00,0,Wunderground v.1.15,2013-02-28 05:08:00,
2013-02-28 00:14:00,39.2,30.9,29.89,West,275,13.0,21.0,72,0.00,,,0.00,0,Wunderground v.1.15,2013-02-28 05:14:00,
2013-02-28 00:20:00,39.1,30.8,29.89,NW,309,15.0,15.0,72,0.00,,,0.00,0,Wunderground v.1.15,2013-02-28 05:20:00,
2013-02-28 00:26:00,39.1,30.8,29.88,WNW,290,6.0,15.0,72,0.00,,,0.00,0,Wunderground v.1.15,2013-02-28 05:26:00,
2013-02-28 00:32:00,38.9,31.0,29.89,West,266,10.0,11.0,73,0.00,,,0.00,0,Wunderground v.1.15,2013-02-28 05:32:00,
2013-02-28 00:38:00,38.6,30.7,29.88,West,275,12.0,13.0,73,0.00,,,0.00,0,Wunderground v.1.15,2013-02-28 05:38:00,
2013-02-28 00:43:00,38.5,30.6,29.88,WNW,288,13.0,13.0,73,0.00,,,0.00,0,Wunderground v.1.15,2013-02-28 05:43:00,
2013-02-28 00:49:00,38.4,30.2,29.88,WNW,292,13.0,15.0,72,0.00,,,0.00,0,Wunderground v.1.15,2013-02-28 05:49:00,
2013-02-28 00:54:00,38.3,30.1,29.89,West,274,9.0,10.0,72,0.00,,,0.00,0,Wunderground v.1.15,2013-02-28 05:54:00,
2013-02-28 01:00:00,38.1,30.2,29.89,WNW,282,6.0,6.0,73,0.00,,,0.00,0,Wunderground v.1.15,2013-02-28 06:00:00,
2013-02-28 01:06:00,38.0,30.1,29.89,West,269,5.0,8.0,73,0.00,,,0.00,0,Wunderground v.1.15,2013-02-28 06:06:00,
2013-02-28 01:12:00,37.8,30.3,29.89,WNW,297,3.0,5.0,74,0.00,,,0.00,0,Wunderground v.1.15,2013-02-28 06:12:00,
2013-02-28 01:18:00,37.8,30.3,29.89,West,260,2.0,5.0,74,0.00,,,0.00,0,Wunderground v.1.15,2013-02-28 06:18:00,
2013-02-28 01:24:00,37.8,30.3,29.90,NW,310,1.0,5.0,74,0.00,,,0.00,0,Wunderground v.1.15,2013-02-28 06:24:00,
2013-02-28 01:30:00,37.9,30.4,29.89,West,277,0.0,3.0,74,0.00,,,0.00,0,Wunderground v.1.15,2013-02-28 06:30:00,
2013-02-28 01:36:00,37.9,30.4,29.89,WSW,258,9.0,9.0,74,0.00,,,0.00,0,Wunderground v.1.15,2013-02-28 06:36:00,
2013-02-28 01:42:00,38.0,30.4,29.89,WSW,251,2.0,4.0,74,0.00,,,0.00,0,Wunderground v.1.15,2013-02-28 06:42:00,
2013-02-28 01:47:00,38.0,30.8,29.89,WNW,294,9.0,9.0,75,0.00,,,0.00,0,Wunderground v.1.15,2013-02-28 06:47:00,
2013-02-28 01:53:00,38.0,30.8,29.89,WNW,283,4.0,8.0,75,0.00,,,0.00,0,Wunderground v.1.15,2013-02-28 06:53:00,
2013-02-28 01:59:00,37.9,31.3,29.89,WNW,290,3.0,8.0,77,0.00,,,0.00,0,Wunderground v.1.15,2013-02-28 06:59:00,
2013-02-28 02:04:00,37.9,31.3,29.89,WNW,293,1.0,6.0,77,0.00,,,0.00,0,Wunderground v.1.15,2013-02-28 07:04:00,
2013-02-28 02:09:00,37.8,31.2,29.89,NW,305,13.0,13.0,77,0.00,,,0.00,0,Wunderground v.1.15,2013-02-28 07:09:00,
2013-02-28 02:14:00,37.8,31.2,29.89,NW,309,7.0,13.0,77,0.00,,,0.00,0,Wunderground v.1.15,2013-02-28 07:14:00,
2013-02-28 02:19:00,37.7,30.5,29.89,West,271,9.0,15.0,75,0.00,,,0.00,0,Wunderground v.1.15,2013-02-28 07:19:00,
2013-02-28 02:24:00,37.6,30.1,29.89,WSW,257,13.0,17.0,74,0.00,,,0.00,0,Wunderground v.1.15,2013-02-28 07:24:00,
2013-02-28 02:29:00,37.5,29.3,29.89,WNW,299,6.0,20.0,72,0.00,,,0.00,0,Wunderground v.1.15,2013-02-28 07:29:00,
2013-02-28 02:34:00,37.3,29.1,29.90,WNW,298,12.0,12.0,72,0.00,,,0.00,0,Wunderground v.1.15,2013-02-28 07:34:00,
2013-02-28 02:39:00,37.1,28.2,29.89,West,281,14.0,15.0,70,0.00,,,0.00,0,Wunderground v.1.15,2013-02-28 07:39:00,
2013-02-28 02:44:00,36.9,27.7,29.90,WNW,285,6.0,14.0,69,0.00,,,0.00,0,Wunderground v.1.15,2013-02-28 07:44:00,
2013-02-28 02:49:00,36.7,27.1,29.90,WNW,294,4.0,14.0,68,0.00,,,0.00,0,Wunderground v.1.15,2013-02-28 07:49:00,
2013-02-28 02:54:00,36.6,27.4,29.90,West,265,6.0,11.0,69,0.00,,,0.00,0,Wunderground v.1.15,2013-02-28 07:54:00,
2013-02-28 02:59:00,36.5,27.3,29.90,WNW,288,3.0,11.0,69,0.00,,,0.00,0,Wunderground v.1.15,2013-02-28 07:59:00,
2013-02-28 03:04:00,36.4,27.5,29.90,NW,319,6.0,9.0,70,0.00,,,0.00,0,Wunderground v.1.15,2013-02-28 08:04:00,
2013-02-28 03:09:00,36.3,27.4,29.90,WNW,293,1.0,13.0,70,0.00,,,0.00,0,Wunderground v.1.15,2013-02-28 08:09:00,
2013-02-28 03:14:00,36.2,27.0,29.89,NNW,333,8.0,8.0,69,0.00,,,0.00,0,Wunderground v.1.15,2013-02-28 08:14:00,
2013-02-28 03:19:00,36.1,26.6,29.90,West,279,8.0,15.0,68,0.00,,,0.00,0,Wunderground v.1.15,2013-02-28 08:19:00,
2013-02-28 03:24:00,36.0,26.5,29.89,WNW,300,8.0,10.0,68,0.00,,,0.00,0,Wunderground v.1.15,2013-02-28 08:24:00,
2013-02-28 03:29:00,35.9,26.4,29.89,WNW,286,4.0,10.0,68,0.00,,,0.00,0,Wunderground v.1.15,2013-02-28 08:29:00,
2013-02-28 03:34:00,35.9,26.7,29.89,NNW,329,5.0,11.0,69,0.00,,,0.00,0,Wunderground v.1.15,2013-02-28 08:34:00,
2013-02-28 03:39:00,35.8,26.3,29.89,WNW,285,9.0,11.0,68,0.00,,,0.00,0,Wunderground v.1.15,2013-02-28 08:39:00,
2013-02-28 03:44:00,35.8,26.3,29.89,NW,313,8.0,15.0,68,0.00,,,0.00,0,Wunderground v.1.15,2013-02-28 08:44:00,
2013-02-28 03:50:00,35.7,26.5,29.89,WNW,288,10.0,10.0,69,0.00,,,0.00,0,Wunderground v.1.15,2013-02-28 08:50:00,
2013-02-28 03:55:00,35.7,26.2,29.89,WNW,287,9.0,12.0,68,0.00,,,0.00,0,Wunderground v.1.15,2013-02-28 08:55:00,
2013-02-28 04:00:00,35.6,26.4,29.89,WNW,294,12.0,12.0,69,0.00,,,0.00,0,Wunderground v.1.15,2013-02-28 09:00:00,
2013-02-28 04:05:00,35.5,26.7,29.89,WNW,288,4.0,12.0,70,0.00,,,0.00,0,Wunderground v.1.15,2013-02-28 09:05:00,
2013-02-28 04:10:00,35.4,26.6,29.89,WNW,292,7.0,7.0,70,0.00,,,0.00,0,Wunderground v.1.15,2013-02-28 09:10:00,
2013-02-28 04:15:00,35.2,27.4,29.89,WNW,294,2.0,7.0,73,0.00,,,0.00,0,Wunderground v.1.15,2013-02-28 09:15:00,
2013-02-28 04:20:00,35.1,27.3,29.89,West,269,2.0,4.0,73,0.00,,,0.00,0,Wunderground v.1.15,2013-02-28 09:20:00,
2013-02-28 04:25:00,35.2,27.1,29.89,WSW,244,7.0,10.0,72,0.00,,,0.00,0,Wunderground v.1.15,2013-02-28 09:25:00,
2013-02-28 04:30:00,35.3,27.2,29.89,WNW,294,6.0,9.0,72,0.00,,,0.00,0,Wunderground v.1.15,2013-02-28 09:30:00,
2013-02-28 04:35:00,35.3,27.2,29.89,WSW,250,4.0,9.0,72,0.00,,,0.00,0,Wunderground v.1.15,2013-02-28 09:35:00,
2013-02-28 04:40:00,35.4,27.3,29.88,WNW,284,4.0,6.0,72,0.00,,,0.00,0,Wunderground v.1.15,2013-02-28 09:40:00,
2013-02-28 04:45:00,35.4,27.3,29.88,WNW,298,4.0,7.0,72,0.00,,,0.00,0,Wunderground v.1.15,2013-02-28 09:45:00,
2013-02-28 04:50:00,35.4,27.3,29.88,WNW,288,5.0,5.0,72,0.00,,,0.00,0,Wunderground v.1.15,2013-02-28 09:50:00,
2013-02-28 04:55:00,35.4,27.3,29.88,WNW,292,2.0,5.0,72,0.00,,,0.00,0,Wunderground v.1.15,2013-02-28 09:55:00,
2013-02-28 05:00:00,35.3,27.5,29.89,WSW,247,2.0,3.0,73,0.00,,,0.00,0,Wunderground v.1.15,2013-02-28 10:00:00,
2013-02-28 05:06:00,35.3,27.2,29.88,WNW,296,2.0,6.0,72,0.00,,,0.00,0,Wunderground v.1.15,2013-02-28 10:06:00,
2013-02-28 05:11:00,35.3,27.5,29.89,West,266,0.0,6.0,73,0.00,,,0.00,0,Wunderground v.1.15,2013-02-28 10:11:00,
2013-02-28 05:16:00,35.3,27.8,29.89,West,279,2.0,8.0,74,0.00,,,0.00,0,Wunderground v.1.15,2013-02-28 10:16:00,
2013-02-28 05:21:00,35.3,27.5,29.88,WNW,290,2.0,3.0,73,0.00,,,0.00,0,Wunderground v.1.15,2013-02-28 10:21:00,
2013-02-28 05:26:00,35.3,27.8,29.88,WNW,282,6.0,7.0,74,0.00,,,0.00,0,Wunderground v.1.15,2013-02-28 10:26:00,
2013-02-28 05:31:00,35.2,27.7,29.88,West,281,0.0,3.0,74,0.00,,,0.00,0,Wunderground v.1.15,2013-02-28 10:31:00,
2013-02-28 05:36:00,35.2,28.1,29.88,WNW,288,0.0,5.0,75,0.00,,,0.00,0,Wunderground v.1.15,2013-02-28 10:36:00,
2013-02-28 05:41:00,35.2,28.1,29.88,WNW,299,1.0,2.0,75,0.00,,,0.00,0,Wunderground v.1.15,2013-02-28 10:41:00,
2013-02-28 05:46:00,35.2,28.1,29.88,WNW,294,1.0,4.0,75,0.00,,,0.00,0,Wunderground v.1.15,2013-02-28 10:46:00,
2013-02-28 05:51:00,35.2,28.1,29.88,WSW,256,3.0,6.0,75,0.00,,,0.00,0,Wunderground v.1.15,2013-02-28 10:51:00,
2013-02-28 05:56:00,35.2,28.1,29.88,West,272,0.0,8.0,75,0.00,,,0.00,0,Wunderground v.1.15,2013-02-28 10:56:00,
2013-02-28 06:01:00,35.2,28.1,29.88,WSW,246,5.0,6.0,75,0.00,,,0.00,0,Wunderground v.1.15,2013-02-28 11:01:00,
2013-02-28 06:06:00,35.3,28.2,29.88,NW,306,8.0,10.0,75,0.00,,,0.00,0,Wunderground v.1.15,2013-02-28 11:06:00,
2013-02-28 06:11:00,35.3,28.8,29.88,West,279,6.0,7.0,77,0.00,,,0.00,0,Wunderground v.1.15,2013-02-28 11:11:00,
2013-02-28 06:16:00,35.2,28.1,29.88,WNW,287,1.0,9.0,75,0.00,,,0.00,0,Wunderground v.1.15,2013-02-28 11:16:00,
2013-02-28 06:21:00,35.2,28.7,29.88,WNW,293,7.0,7.0,77,0.00,,,0.00,0,Wunderground v.1.15,2013-02-28 11:21:00,
2013-02-28 06:26:00,35.2,28.4,29.88,WSW,255,6.0,8.0,76,0.00,,,0.00,0,Wunderground v.1.15,2013-02-28 11:26:00,
2013-02-28 06:31:00,35.3,28.5,29.88,WNW,297,7.0,12.0,76,0.00,,,0.00,0,Wunderground v.1.15,2013-02-28 11:31:00,
2013-02-28 06:36:00,35.3,28.8,29.89,WNW,290,9.0,12.0,77,0.00,,,0.00,0,Wunderground v.1.15,2013-02-28 11:36:00,
2013-02-28 06:41:00,35.3,28.8,29.89,WNW,290,8.0,9.0,77,0.00,,,0.00,0,Wunderground v.1.15,2013-02-28 11:41:00,
2013-02-28 06:46:00,35.3,28.8,29.89,WNW,286,6.0,9.0,77,0.00,,,0.00,0,Wunderground v.1.15,2013-02-28 11:46:00,
2013-02-28 06:51:00,35.3,28.8,29.89,WNW,298,5.0,8.0,77,0.00,,,0.00,0,Wunderground v.1.15,2013-02-28 11:51:00,
2013-02-28 06:56:00,35.2,29.0,29.89,WSW,250,6.0,8.0,78,0.00,,,0.00,0,Wunderground v.1.15,2013-02-28 11:56:00,
2013-02-28 07:02:00,35.2,29.0,29.89,NW,304,3.0,6.0,78,0.00,,,0.00,0,Wunderground v.1.15,2013-02-28 12:02:00,
2013-02-28 07:07:00,35.1,29.2,29.89,West,272,7.0,7.0,79,0.00,,,0.00,0,Wunderground v.1.15,2013-02-28 12:07:00,
2013-02-28 07:12:00,35.0,29.1,29.89,WNW,294,8.0,10.0,79,0.00,,,0.00,0,Wunderground v.1.15,2013-02-28 12:12:00,
2013-02-28 07:17:00,35.0,29.1,29.89,WSW,251,5.0,10.0,79,0.00,,,0.00,0,Wunderground v.1.15,2013-02-28 12:17:00,
2013-02-28 07:22:00,34.9,29.4,29.89,WNW,290,4.0,5.0,80,0.00,,,0.00,5,Wunderground v.1.15,2013-02-28 12:22:00,
2013-02-28 07:27:00,34.8,29.6,29.90,WNW,290,3.0,6.0,81,0.00,,,0.00,0,Wunderground v.1.15,2013-02-28 12:27:00,
2013-02-28 07:32:00,34.7,29.5,29.90,WNW,295,5.0,5.0,81,0.00,,,0.00,5,Wunderground v.1.15,2013-02-28 12:32:00,
2013-02-28 07:37:00,34.7,29.8,29.89,WSW,250,5.0,8.0,82,0.00,,,0.00,11,Wunderground v.1.15,2013-02-28 12:37:00,
2013-02-28 07:42:00,34.6,29.7,29.89,WNW,290,3.0,5.0,82,0.00,,,0.00,11,Wunderground v.1.15,2013-02-28 12:42:00,
2013-02-28 07:47:00,34.6,29.7,29.89,West,271,0.0,5.0,82,0.00,,,0.00,12,Wunderground v.1.15,2013-02-28 12:47:00,
2013-02-28 07:52:00,34.6,30.0,29.89,West,281,5.0,6.0,83,0.00,,,0.00,12,Wunderground v.1.15,2013-02-28 12:52:00,
2013-02-28 07:57:00,34.6,30.0,29.90,WSW,257,4.0,6.0,83,0.00,,,0.00,16,Wunderground v.1.15,2013-02-28 12:57:00,
2013-02-28 08:02:00,34.5,29.9,29.90,WNW,292,6.0,7.0,83,0.00,,,0.00,18,Wunderground v.1.15,2013-02-28 13:02:00,
2013-02-28 08:07:00,34.6,30.0,29.90,West,263,1.0,7.0,83,0.00,,,0.00,21,Wunderground v.1.15,2013-02-28 13:07:00,
2013-02-28 08:12:00,34.6,30.0,29.91,SW,227,2.0,5.0,83,0.00,,,0.00,19,Wunderground v.1.15,2013-02-28 13:12:00,
2013-02-28 08:17:00,34.8,30.2,29.91,WNW,290,2.0,8.0,83,0.00,,,0.00,21,Wunderground v.1.15,2013-02-28 13:17:00,
2013-02-28 08:22:00,34.8,29.9,29.91,WSW,253,3.0,6.0,82,0.00,,,0.00,23,Wunderground v.1.15,2013-02-28 13:22:00,
2013-02-28 08:27:00,34.8,29.9,29.91,WSW,253,5.0,7.0,82,0.00,,,0.00,33,Wunderground v.1.15,2013-02-28 13:27:00,
2013-02-28 08:32:00,34.8,29.9,29.91,West,261,3.0,11.0,82,0.00,,,0.00,33,Wunderground v.1.15,2013-02-28 13:32:00,
2013-02-28 08:37:00,34.9,30.0,29.91,WSW,242,4.0,11.0,82,0.00,,,0.00,39,Wunderground v.1.15,2013-02-28 13:37:00,
2013-02-28 08:42:00,35.0,30.1,29.91,WNW,291,5.0,8.0,82,0.00,,,0.00,37,Wunderground v.1.15,2013-02-28 13:42:00,
2013-02-28 08:47:00,35.0,30.1,29.91,West,279,3.0,8.0,82,0.00,,,0.00,33,Wunderground v.1.15,2013-02-28 13:47:00,
2013-02-28 08:52:00,35.1,30.2,29.92,West,275,3.0,6.0,82,0.00,,,0.00,42,Wunderground v.1.15,2013-02-28 13:52:00,
2013-02-28 08:57:00,35.2,30.0,29.92,WNW,284,2.0,10.0,81,0.00,,,0.00,51,Wunderground v.1.15,2013-02-28 13:57:00,
2013-02-28 09:02:00,35.3,30.1,29.93,WNW,285,3.0,3.0,81,0.00,,,0.00,51,Wunderground v.1.15,2013-02-28 14:02:00,
2013-02-28 09:08:00,35.4,29.8,29.93,West,277,1.0,6.0,80,0.00,,,0.00,56,Wunderground v.1.15,2013-02-28 14:08:00,
2013-02-28 09:13:00,35.5,29.9,29.93,WNW,294,2.0,5.0,80,0.00,,,0.00,83,Wunderground v.1.15,2013-02-28 14:13:00,
2013-02-28 09:18:00,35.6,30.3,29.93,WNW,292,0.0,7.0,81,0.00,,,0.00,51,Wunderground v.1.15,2013-02-28 14:18:00,
2013-02-28 09:23:00,35.7,30.1,29.93,NW,312,3.0,4.0,80,0.00,,,0.00,44,Wunderground v.1.15,2013-02-28 14:23:00,
2013-02-28 09:28:00,35.7,30.1,29.93,NW,323,6.0,9.0,80,0.00,,,0.00,46,Wunderground v.1.15,2013-02-28 14:28:00,
2013-02-28 09:33:00,35.6,29.4,29.93,NW,313,11.0,11.0,78,0.00,,,0.00,51,Wunderground v.1.15,2013-02-28 14:33:00,
2013-02-28 09:38:00,35.5,29.0,29.93,NW,323,8.0,13.0,77,0.00,,,0.00,46,Wunderground v.1.15,2013-02-28 14:38:00,
2013-02-28 09:43:00,35.6,29.1,29.93,WNW,295,7.0,10.0,77,0.00,,,0.00,74,Wunderground v.1.15,2013-02-28 14:43:00,
2013-02-28 09:48:00,35.6,29.1,29.93,WNW,288,7.0,12.0,77,0.00,,,0.00,88,Wunderground v.1.15,2013-02-28 14:48:00,
2013-02-28 09:53:00,35.7,29.2,29.92,NNW,346,5.0,10.0,77,0.00,,,0.00,70,Wunderground v.1.15,2013-02-28 14:53:00,
2013-02-28 09:58:00,35.7,28.6,29.92,NNW,345,8.0,14.0,75,0.00,,,0.00,67,Wunderground v.1.15,2013-02-28 14:58:00,
2013-02-28 10:03:00,35.6,28.5,29.92,WNW,282,11.0,13.0,75,0.00,,,0.00,63,Wunderground v.1.15,2013-02-28 15:03:00,
2013-02-28 10:08:00,35.6,28.8,29.93,NNW,334,3.0,13.0,76,0.00,,,0.00,56,Wunderground v.1.15,2013-02-28 15:08:00,
2013-02-28 10:13:00,35.6,28.8,29.93,NW,307,8.0,9.0,76,0.00,,,0.00,58,Wunderground v.1.15,2013-02-28 15:13:00,
2013-02-28 10:18:00,35.5,28.7,29.93,WNW,292,6.0,12.0,76,0.00,,,0.00,69,Wunderground v.1.15,2013-02-28 15:18:00,
2013-02-28 10:23:00,35.5,28.7,29.93,WNW,294,5.0,12.0,76,0.00,,,0.00,76,Wunderground v.1.15,2013-02-28 15:23:00,
2013-02-28 10:28:00,35.5,28.7,29.93,NW,309,5.0,12.0,76,0.00,,,0.00,77,Wunderground v.1.15,2013-02-28 15:28:00,
2013-02-28 10:33:00,35.6,28.8,29.93,NW,311,12.0,14.0,76,0.00,,,0.00,79,Wunderground v.1.15,2013-02-28 15:33:00,
2013-02-28 10:38:00,35.6,28.5,29.93,NW,306,5.0,14.0,75,0.00,,,0.00,79,Wunderground v.1.15,2013-02-28 15:38:00,
2013-02-28 10:43:00,35.6,28.5,29.93,NW,312,5.0,12.0,75,0.00,,,0.00,76,Wunderground v.1.15,2013-02-28 15:43:00,
2013-02-28 10:48:00,35.7,28.6,29.93,West,273,7.0,12.0,75,0.00,,,0.00,95,Wunderground v.1.15,2013-02-28 15:48:00,
2013-02-28 10:53:00,35.8,28.6,29.93,NW,307,4.0,9.0,75,0.00,,,0.00,123,Wunderground v.1.15,2013-02-28 15:53:00,
2013-02-28 10:58:00,36.1,28.9,29.93,WNW,298,8.0,9.0,75,0.00,,,0.00,197,Wunderground v.1.15,2013-02-28 15:58:00,
2013-02-28 11:03:00,36.5,29.0,29.93,WNW,291,8.0,9.0,74,0.00,,,0.00,267,Wunderground v.1.15,2013-02-28 16:03:00,
2013-02-28 11:08:00,36.9,29.4,29.93,NNW,328,7.0,9.0,74,0.00,,,0.00,301,Wunderground v.1.15,2013-02-28 16:08:00,
2013-02-28 11:13:00,37.0,29.1,29.93,NNW,327,11.0,11.0,73,0.00,,,0.00,137,Wunderground v.1.15,2013-02-28 16:13:00,
2013-02-28 11:18:00,36.7,28.5,29.93,WNW,288,7.0,11.0,72,0.00,,,0.00,113,Wunderground v.1.15,2013-02-28 16:18:00,
2013-02-28 11:23:00,36.4,28.6,29.94,NW,309,8.0,10.0,73,0.00,,,0.00,86,Wunderground v.1.15,2013-02-28 16:23:00,
2013-02-28 11:28:00,36.3,29.1,29.95,WNW,298,7.0,13.0,75,0.00,,,0.00,77,Wunderground v.1.15,2013-02-28 16:28:00,
2013-02-28 11:33:00,36.0,28.8,29.95,NNW,348,9.0,14.0,75,0.00,,,0.00,69,Wunderground v.1.15,2013-02-28 16:33:00,
2013-02-28 11:38:00,35.7,28.9,29.95,NW,321,11.0,14.0,76,0.00,,,0.00,74,Wunderground v.1.15,2013-02-28 16:38:00,
2013-02-28 11:43:00,35.3,29.1,29.95,NW,321,7.0,14.0,78,0.00,,,0.00,86,Wunderground v.1.15,2013-02-28 16:43:00,
2013-02-28 11:48:00,35.1,29.2,29.95,NW,321,9.0,14.0,79,0.00,,,0.00,74,Wunderground v.1.15,2013-02-28 16:48:00,
2013-02-28 11:53:00,34.8,29.0,29.95,NW,318,6.0,15.0,79,0.00,,,0.00,98,Wunderground v.1.15,2013-02-28 16:53:00,
2013-02-28 11:59:00,34.4,28.6,29.95,North,355,5.0,15.0,79,0.00,,,0.00,114,Wunderground v.1.15,2013-02-28 16:59:00,
2013-02-28 12:04:00,34.1,28.6,29.96,NNW,333,3.0,14.0,80,0.00,,,0.00,146,Wunderground v.1.15,2013-02-28 17:04:00,
2013-02-28 12:09:00,34.1,28.6,29.96,North,350,7.0,14.0,80,0.00,,,0.00,134,Wunderground v.1.15,2013-02-28 17:09:00,
2013-02-28 12:14:00,34.0,28.8,29.96,NW,313,9.0,16.0,81,0.00,,,0.00,109,Wunderground v.1.15,2013-02-28 17:14:00,
2013-02-28 12:19:00,34.0,28.8,29.96,NW,307,6.0,16.0,81,0.00,,,0.00,121,Wunderground v.1.15,2013-02-28 17:19:00,
2013-02-28 12:24:00,34.0,29.1,29.96,North,355,11.0,14.0,82,0.00,,,0.00,104,Wunderground v.1.15,2013-02-28 17:24:00,
2013-02-28 12:29:00,33.8,28.9,29.96,WNW,302,7.0,15.0,82,0.00,,,0.00,97,Wunderground v.1.15,2013-02-28 17:29:00,
2013-02-28 12:34:00,33.8,28.6,29.97,NNW,343,11.0,12.0,81,0.00,,,0.00,104,Wunderground v.1.15,2013-02-28 17:34:00,
2013-02-28 12:39:00,33.8,28.6,29.96,West,280,8.0,12.0,81,0.00,,,0.00,97,Wunderground v.1.15,2013-02-28 17:39:00,
2013-02-28 12:44:00,33.7,28.5,29.96,NW,304,8.0,12.0,81,0.00,,,0.00,100,Wunderground v.1.15,2013-02-28 17:44:00,
2013-02-28 12:49:00,33.7,28.5,29.97,West,267,8.0,12.0,81,0.00,,,0.00,102,Wunderground v.1.15,2013-02-28 17:49:00,
2013-02-28 12:54:00,33.7,28.5,29.96,WNW,301,5.0,12.0,81,0.00,,,0.00,105,Wunderground v.1.15,2013-02-28 17:54:00,
2013-02-28 12:59:00,33.8,28.9,29.97,NW,308,10.0,12.0,82,0.00,,,0.00,120,Wunderground v.1.15,2013-02-28 17:59:00,
2013-02-28 13:04:00,33.9,28.7,29.97,NNW,327,6.0,9.0,81,0.00,,,0.00,113,Wunderground v.1.15,2013-02-28 18:04:00,
2013-02-28 13:09:00,33.9,28.4,29.97,WNW,284,8.0,10.0,80,0.00,,,0.00,111,Wunderground v.1.15,2013-02-28 18:09:00,
2013-02-28 13:14:00,33.9,28.4,29.97,WNW,292,8.0,14.0,80,0.00,,,0.00,111,Wunderground v.1.15,2013-02-28 18:14:00,
2013-02-28 13:19:00,33.8,28.3,29.97,NNW,330,6.0,14.0,80,0.00,,,0.00,109,Wunderground v.1.15,2013-02-28 18:19:00,
2013-02-28 13:24:00,33.8,28.3,29.97,NNW,331,5.0,10.0,80,0.00,,,0.00,95,Wunderground v.1.15,2013-02-28 18:24:00,
2013-02-28 13:29:00,33.9,28.4,29.97,NW,307,6.0,13.0,80,0.00,,,0.00,130,Wunderground v.1.15,2013-02-28 18:29:00,
2013-02-28 13:34:00,34.0,28.2,29.97,NW,319,7.0,10.0,79,0.00,,,0.00,134,Wunderground v.1.15,2013-02-28 18:34:00,
2013-02-28 13:39:00,34.5,29.0,29.96,West,278,5.0,10.0,80,0.00,,,0.00,260,Wunderground v.1.15,2013-02-28 18:39:00,
2013-02-28 13:44:00,35.0,28.5,29.96,WNW,298,6.0,13.0,77,0.00,,,0.00,264,Wunderground v.1.15,2013-02-28 18:44:00,
2013-02-28 13:49:00,35.2,28.4,29.96,North,9,10.0,13.0,76,0.00,,,0.00,141,Wunderground v.1.15,2013-02-28 18:49:00,
2013-02-28 13:54:00,34.9,28.1,29.96,NNW,334,6.0,12.0,76,0.00,,,0.00,162,Wunderground v.1.15,2013-02-28 18:54:00,
2013-02-28 13:59:00,34.8,28.0,29.97,NNW,341,7.0,13.0,76,0.00,,,0.00,169,Wunderground v.1.15,2013-02-28 18:59:00,
2013-02-28 14:04:00,34.8,27.7,29.97,WNW,299,13.0,13.0,75,0.00,,,0.00,169,Wunderground v.1.15,2013-02-28 19:04:00,
2013-02-28 14:09:00,34.8,27.7,29.97,WNW,284,8.0,13.0,75,0.00,,,0.00,144,Wunderground v.1.15,2013-02-28 19:09:00,
2013-02-28 14:14:00,34.8,27.0,29.97,NW,317,6.0,11.0,73,0.00,,,0.00,107,Wunderground v.1.15,2013-02-28 19:14:00,
2013-02-28 14:19:00,34.8,27.7,29.97,North,349,10.0,10.0,75,0.00,,,0.00,109,Wunderground v.1.15,2013-02-28 19:19:00,
2013-02-28 14:25:00,34.7,26.9,29.96,NNW,327,7.0,12.0,73,0.00,,,0.00,118,Wunderground v.1.15,2013-02-28 19:25:00,
2013-02-28 14:29:00,34.7,27.3,29.97,WNW,300,10.0,10.0,74,0.00,,,0.00,123,Wunderground v.1.15,2013-02-28 19:29:00,
2013-02-28 14:35:00,34.8,27.7,29.97,WNW,284,5.0,10.0,75,0.00,,,0.00,120,Wunderground v.1.15,2013-02-28 19:35:00,
2013-02-28 14:40:00,34.8,27.4,29.97,NNW,336,9.0,9.0,74,0.00,,,0.00,127,Wunderground v.1.15,2013-02-28 19:40:00,
2013-02-28 14:45:00,34.7,27.3,29.97,NW,324,7.0,11.0,74,0.00,,,0.00,144,Wunderground v.1.15,2013-02-28 19:45:00,
2013-02-28 14:50:00,35.0,27.9,29.97,NNW,346,8.0,8.0,75,0.00,,,0.00,153,Wunderground v.1.15,2013-02-28 19:50:00,
2013-02-28 14:55:00,35.0,27.9,29.97,NW,318,4.0,12.0,75,0.00,,,0.00,123,Wunderground v.1.15,2013-02-28 19:55:00,
2013-02-28 15:00:00,35.1,28.0,29.98,NW,323,4.0,6.0,75,0.00,,,0.00,104,Wunderground v.1.15,2013-02-28 20:00:00,
2013-02-28 15:06:00,35.0,27.5,29.98,NNW,335,5.0,8.0,74,0.00,,,0.00,88,Wunderground v.1.15,2013-02-28 20:06:00,
2013-02-28 15:11:00,35.0,27.9,29.98,WNW,294,7.0,7.0,75,0.00,,,0.00,84,Wunderground v.1.15,2013-02-28 20:11:00,
2013-02-28 15:16:00,34.8,27.4,29.98,NW,308,7.0,10.0,74,0.00,,,0.00,79,Wunderground v.1.15,2013-02-28 20:16:00,
2013-02-28 15:21:00,34.6,27.2,29.98,NW,317,4.0,6.0,74,0.00,,,0.00,88,Wunderground v.1.15,2013-02-28 20:21:00,
2013-02-28 15:26:00,34.6,27.5,29.98,NNW,338,7.0,10.0,75,0.00,,,0.00,104,Wunderground v.1.15,2013-02-28 20:26:00,
2013-02-28 15:31:00,34.7,27.6,29.99,WNW,293,6.0,8.0,75,0.00,,,0.00,128,Wunderground v.1.15,2013-02-28 20:31:00,
2013-02-28 15:36:00,34.8,27.7,29.99,NW,304,5.0,9.0,75,0.00,,,0.00,91,Wunderground v.1.15,2013-02-28 20:36:00,
2013-02-28 15:41:00,34.8,27.7,29.99,NNW,335,3.0,5.0,75,0.00,,,0.00,91,Wunderground v.1.15,2013-02-28 20:41:00,
2013-02-28 15:46:00,34.7,27.3,29.99,NW,326,6.0,9.0,74,0.00,,,0.00,79,Wunderground v.1.15,2013-02-28 20:46:00,
2013-02-28 15:51:00,34.8,27.0,29.99,WNW,298,5.0,12.0,73,0.00,,,0.00,72,Wunderground v.1.15,2013-02-28 20:51:00,
2013-02-28 15:56:00,34.7,27.3,30.00,NW,321,8.0,12.0,74,0.00,,,0.00,83,Wunderground v.1.15,2013-02-28 20:56:00,
2013-02-28 16:01:00,34.7,27.3,30.00,NNW,332,3.0,7.0,74,0.00,,,0.00,74,Wunderground v.1.15,2013-02-28 21:01:00,
2013-02-28 16:06:00,34.6,26.8,30.00,NW,316,2.0,9.0,73,0.00,,,0.00,58,Wunderground v.1.15,2013-02-28 21:06:00,
2013-02-28 16:11:00,34.5,27.1,30.00,NW,315,4.0,8.0,74,0.00,,,0.00,84,Wunderground v.1.15,2013-02-28 21:11:00,
2013-02-28 16:16:00,34.7,26.9,30.00,NW,325,4.0,11.0,73,0.00,,,0.00,107,Wunderground v.1.15,2013-02-28 21:16:00,
2013-02-28 16:21:00,34.8,27.0,30.00,NNW,338,5.0,10.0,73,0.00,,,0.00,77,Wunderground v.1.15,2013-02-28 21:21:00,
2013-02-28 16:26:00,34.7,26.6,30.00,NNW,335,4.0,10.0,72,0.00,,,0.00,76,Wunderground v.1.15,2013-02-28 21:26:00,
2013-02-28 16:31:00,34.6,26.8,30.00,NNW,329,8.0,9.0,73,0.00,,,0.00,67,Wunderground v.1.15,2013-02-28 21:31:00,
2013-02-28 16:36:00,34.6,26.8,30.00,NNW,347,4.0,10.0,73,0.00,,,0.00,69,Wunderground v.1.15,2013-02-28 21:36:00,
2013-02-28 16:41:00,34.7,27.3,30.00,WNW,303,3.0,6.0,74,0.00,,,0.00,76,Wunderground v.1.15,2013-02-28 21:41:00,
2013-02-28 16:47:00,34.7,26.9,30.01,NW,315,4.0,8.0,73,0.00,,,0.00,67,Wunderground v.1.15,2013-02-28 21:47:00,
2013-02-28 16:52:00,34.7,26.6,30.01,NW,304,4.0,5.0,72,0.00,,,0.00,53,Wunderground v.1.15,2013-02-28 21:52:00,
2013-02-28 16:57:00,34.7,27.3,30.01,North,349,5.0,7.0,74,0.00,,,0.00,42,Wunderground v.1.15,2013-02-28 21:57:00,
2013-02-28 17:02:00,34.6,26.8,30.01,WNW,290,9.0,10.0,73,0.00,,,0.00,35,Wunderground v.1.15,2013-02-28 22:02:00,
2013-02-28 17:07:00,34.6,27.2,30.00,NW,311,2.0,11.0,74,0.00,,,0.00,51,Wunderground v.1.15,2013-02-28 22:07:00,
2013-02-28 17:12:00,34.6,27.2,30.01,WNW,301,3.0,8.0,74,0.00,,,0.00,58,Wunderground v.1.15,2013-02-28 22:12:00,
2013-02-28 17:17:00,34.5,26.7,30.01,NW,304,5.0,10.0,73,0.00,,,0.00,44,Wunderground v.1.15,2013-02-28 22:17:00,
2013-02-28 17:22:00,34.5,27.1,30.01,WNW,300,5.0,6.0,74,0.00,,,0.00,32,Wunderground v.1.15,2013-02-28 22:22:00,
2013-02-28 17:27:00,34.5,27.1,30.01,NW,311,7.0,7.0,74,0.00,,,0.00,26,Wunderground v.1.15,2013-02-28 22:27:00,
2013-02-28 17:32:00,34.4,27.0,30.01,NW,311,10.0,11.0,74,0.00,,,0.00,21,Wunderground v.1.15,2013-02-28 22:32:00,
2013-02-28 17:37:00,34.4,27.0,30.02,NW,304,8.0,11.0,74,0.00,,,0.00,16,Wunderground v.1.15,2013-02-28 22:37:00,
2013-02-28 17:42:00,34.3,26.9,30.02,NW,318,8.0,11.0,74,0.00,,,0.00,18,Wunderground v.1.15,2013-02-28 22:42:00,
2013-02-28 17:47:00,34.2,26.8,30.03,NW,322,5.0,12.0,74,0.00,,,0.00,18,Wunderground v.1.15,2013-02-28 22:47:00,
2013-02-28 17:52:00,34.2,26.8,30.03,NW,305,5.0,11.0,74,0.00,,,0.00,14,Wunderground v.1.15,2013-02-28 22:52:00,
2013-02-28 17:57:00,34.1,26.7,30.02,WNW,285,6.0,11.0,74,0.00,,,0.00,11,Wunderground v.1.15,2013-02-28 22:57:00,
2013-02-28 18:02:00,34.1,26.7,30.03,NW,315,7.0,9.0,74,0.00,,,0.00,9,Wunderground v.1.15,2013-02-28 23:02:00,
2013-02-28 18:07:00,34.0,26.6,30.02,NNW,327,6.0,9.0,74,0.00,,,0.00,7,Wunderground v.1.15,2013-02-28 23:07:00,
2013-02-28 18:12:00,34.0,26.3,30.03,WNW,290,7.0,9.0,73,0.00,,,0.00,5,Wunderground v.1.15,2013-02-28 23:12:00,
2013-02-28 18:17:00,34.0,26.6,30.03,WNW,296,1.0,9.0,74,0.00,,,0.00,0,Wunderground v.1.15,2013-02-28 23:17:00,
2013-02-28 18:22:00,33.9,26.5,30.03,WNW,301,11.0,11.0,74,0.00,,,0.00,0,Wunderground v.1.15,2013-02-28 23:22:00,
2013-02-28 18:27:00,33.9,26.2,30.03,West,278,7.0,13.0,73,0.00,,,0.00,0,Wunderground v.1.15,2013-02-28 23:27:00,
2013-02-28 18:32:00,33.9,26.2,30.03,NW,319,6.0,8.0,73,0.00,,,0.00,0,Wunderground v.1.15,2013-02-28 23:32:00,
2013-02-28 18:37:00,33.8,26.1,30.03,NNW,335,10.0,11.0,73,0.00,,,0.00,0,Wunderground v.1.15,2013-02-28 23:37:00,
2013-02-28 18:42:00,33.8,26.4,30.04,WNW,297,3.0,7.0,74,0.00,,,0.00,0,Wunderground v.1.15,2013-02-28 23:42:00,
2013-02-28 18:48:00,33.8,26.4,30.03,NW,312,5.0,10.0,74,0.00,,,0.00,0,Wunderground v.1.15,2013-02-28 23:48:00,
2013-02-28 18:53:00,33.7,26.3,30.03,WNW,291,6.0,12.0,74,0.00,,,0.00,0,Wunderground v.1.15,2013-02-28 23:53:00,
2013-02-28 18:58:00,33.7,26.6,30.03,WNW,298,5.0,12.0,75,0.00,,,0.00,0,Wunderground v.1.15,2013-02-28 23:58:00,
2013-02-28 19:03:00,33.7,26.6,30.03,West,279,6.0,8.0,75,0.00,,,0.00,0,Wunderground v.1.15,2013-03-01 00:03:00,
2013-02-28 19:08:00,33.6,26.5,30.03,NW,315,5.0,8.0,75,0.00,,,0.00,0,Wunderground v.1.15,2013-03-01 00:08:00,
2013-02-28 19:13:00,33.6,26.5,30.03,NW,311,6.0,8.0,75,0.00,,,0.00,0,Wunderground v.1.15,2013-03-01 00:13:00,
2013-02-28 19:18:00,33.6,26.5,30.03,NNW,329,7.0,9.0,75,0.00,,,0.00,0,Wunderground v.1.15,2013-03-01 00:18:00,
2013-02-28 19:23:00,33.5,26.7,30.04,NNW,337,5.0,7.0,76,0.00,,,0.00,0,Wunderground v.1.15,2013-03-01 00:23:00,
2013-02-28 19:28:00,33.5,26.7,30.04,NNW,333,6.0,12.0,76,0.00,,,0.00,0,Wunderground v.1.15,2013-03-01 00:28:00,
2013-02-28 19:33:00,33.5,26.7,30.04,WNW,303,4.0,7.0,76,0.00,,,0.00,0,Wunderground v.1.15,2013-03-01 00:33:00,
2013-02-28 19:38:00,33.4,26.6,30.04,NW,304,4.0,7.0,76,0.00,,,0.00,0,Wunderground v.1.15,2013-03-01 00:38:00,
2013-02-28 19:43:00,33.4,26.6,30.04,North,355,7.0,7.0,76,0.00,,,0.00,0,Wunderground v.1.15,2013-03-01 00:43:00,
2013-02-28 19:48:00,33.4,26.6,30.04,WNW,300,5.0,9.0,76,0.00,,,0.00,0,Wunderground v.1.15,2013-03-01 00:48:00,
2013-02-28 19:53:00,33.4,26.6,30.05,WNW,287,5.0,8.0,76,0.00,,,0.00,0,Wunderground v.1.15,2013-03-01 00:53:00,
2013-02-28 19:58:00,33.4,27.0,30.05,NW,317,2.0,8.0,77,0.00,,,0.00,0,Wunderground v.1.15,2013-03-01 00:58:00,
2013-02-28 20:03:00,33.4,27.0,30.05,NNW,327,6.0,7.0,77,0.00,,,0.00,0,Wunderground v.1.15,2013-03-01 01:03:00,
2013-02-28 20:09:00,33.4,26.6,30.05,NW,321,5.0,7.0,76,0.00,,,0.00,0,Wunderground v.1.15,2013-03-01 01:09:00,
2013-02-28 20:14:00,33.4,26.6,30.05,NNW,333,5.0,8.0,76,0.00,,,0.00,0,Wunderground v.1.15,2013-03-01 01:14:00,
2013-02-28 20:19:00,33.4,26.6,30.05,NW,323,3.0,8.0,76,0.00,,,0.00,0,Wunderground v.1.15,2013-03-01 01:19:00,
2013-02-28 20:24:00,33.4,26.6,30.05,North,360,7.0,7.0,76,0.00,,,0.00,0,Wunderground v.1.15,2013-03-01 01:24:00,
2013-02-28 20:29:00,33.4,26.6,30.04,NW,305,7.0,8.0,76,0.00,,,0.00,0,Wunderground v.1.15,2013-03-01 01:29:00,
2013-02-28 20:34:00,33.3,26.5,30.05,WNW,291,5.0,9.0,76,0.00,,,0.00,0,Wunderground v.1.15,2013-03-01 01:34:00,
2013-02-28 20:39:00,33.4,26.6,30.04,North,355,3.0,11.0,76,0.00,,,0.00,0,Wunderground v.1.15,2013-03-01 01:39:00,
2013-02-28 20:44:00,33.3,26.5,30.05,WNW,298,6.0,9.0,76,0.00,,,0.00,0,Wunderground v.1.15,2013-03-01 01:44:00,
2013-02-28 20:49:00,33.3,26.5,30.05,WNW,303,3.0,9.0,76,0.00,,,0.00,0,Wunderground v.1.15,2013-03-01 01:49:00,
2013-02-28 20:54:00,33.3,26.9,30.04,WNW,291,7.0,8.0,77,0.00,,,0.00,0,Wunderground v.1.15,2013-03-01 01:54:00,
2013-02-28 20:59:00,33.2,26.5,30.04,NW,315,4.0,9.0,76,0.00,,,0.00,0,Wunderground v.1.15,2013-03-01 01:59:00,
2013-02-28 21:04:00,33.3,26.2,30.04,WNW,302,5.0,12.0,75,0.00,,,0.00,0,Wunderground v.1.15,2013-03-01 02:04:00,
2013-02-28 21:09:00,33.3,26.5,30.05,WNW,286,3.0,12.0,76,0.00,,,0.00,0,Wunderground v.1.15,2013-03-01 02:09:00,
2013-02-28 21:14:00,33.3,26.5,30.05,WNW,300,3.0,7.0,76,0.00,,,0.00,0,Wunderground v.1.15,2013-03-01 02:14:00,
2013-02-28 21:19:00,33.2,26.5,30.05,WNW,293,2.0,9.0,76,0.00,,,0.00,0,Wunderground v.1.15,2013-03-01 02:19:00,
2013-02-28 21:24:00,33.2,26.5,30.05,West,264,3.0,9.0,76,0.00,,,0.00,0,Wunderground v.1.15,2013-03-01 02:24:00,
2013-02-28 21:29:00,33.2,26.5,30.05,NW,306,6.0,9.0,76,0.00,,,0.00,0,Wunderground v.1.15,2013-03-01 02:29:00,
2013-02-28 21:34:00,33.2,26.5,30.05,WNW,300,3.0,7.0,76,0.00,,,0.00,0,Wunderground v.1.15,2013-03-01 02:34:00,
2013-02-28 21:39:00,33.2,26.5,30.05,NW,321,5.0,7.0,76,0.00,,,0.00,0,Wunderground v.1.15,2013-03-01 02:39:00,
2013-02-28 21:44:00,33.2,26.1,30.05,WSW,253,5.0,10.0,75,0.00,,,0.00,0,Wunderground v.1.15,2013-03-01 02:44:00,
2013-02-28 21:49:00,33.2,26.1,30.05,WNW,296,5.0,10.0,75,0.00,,,0.00,0,Wunderground v.1.15,2013-03-01 02:49:00,
2013-02-28 21:54:00,33.2,26.1,30.05,NW,310,6.0,6.0,75,0.00,,,0.00,0,Wunderground v.1.15,2013-03-01 02:54:00,
2013-02-28 21:59:00,33.2,26.1,30.06,NW,325,5.0,7.0,75,0.00,,,0.00,0,Wunderground v.1.15,2013-03-01 02:59:00,
2013-02-28 22:04:00,33.2,26.1,30.06,NNW,347,2.0,10.0,75,0.00,,,0.00,0,Wunderground v.1.15,2013-03-01 03:04:00,
2013-02-28 22:09:00,33.2,26.1,30.06,NNW,348,4.0,10.0,75,0.00,,,0.00,0,Wunderground v.1.15,2013-03-01 03:09:00,
2013-02-28 22:14:00,33.2,26.5,30.06,WNW,284,2.0,4.0,76,0.00,,,0.00,0,Wunderground v.1.15,2013-03-01 03:14:00,
2013-02-28 22:19:00,33.2,26.5,30.05,NW,304,5.0,8.0,76,0.00,,,0.00,0,Wunderground v.1.15,2013-03-01 03:19:00,
2013-02-28 22:24:00,33.2,26.1,30.05,West,265,6.0,8.0,75,0.00,,,0.00,0,Wunderground v.1.15,2013-03-01 03:24:00,
2013-02-28 22:29:00,33.2,26.1,30.05,NW,310,3.0,12.0,75,0.00,,,0.00,0,Wunderground v.1.15,2013-03-01 03:29:00,
2013-02-28 22:34:00,33.2,26.5,30.05,NNW,340,3.0,6.0,76,0.00,,,0.00,0,Wunderground v.1.15,2013-03-01 03:34:00,
2013-02-28 22:39:00,33.1,26.0,30.05,WNW,290,3.0,8.0,75,0.00,,,0.00,0,Wunderground v.1.15,2013-03-01 03:39:00,
2013-02-28 22:44:00,33.1,26.0,30.05,NW,317,1.0,7.0,75,0.00,,,0.00,0,Wunderground v.1.15,2013-03-01 03:44:00,
2013-02-28 22:49:00,33.0,25.9,30.05,NW,310,4.0,7.0,75,0.00,,,0.00,0,Wunderground v.1.15,2013-03-01 03:49:00,
2013-02-28 22:54:00,33.0,26.3,30.05,WNW,301,1.0,8.0,76,0.00,,,0.00,0,Wunderground v.1.15,2013-03-01 03:54:00,
2013-02-28 22:59:00,33.0,26.3,30.05,West,279,8.0,9.0,76,0.00,,,0.00,0,Wunderground v.1.15,2013-03-01 03:59:00,
2013-02-28 23:04:00,33.0,26.3,30.05,WNW,288,3.0,7.0,76,0.00,,,0.00,0,Wunderground v.1.15,2013-03-01 04:04:00,
2013-02-28 23:09:00,33.0,26.3,30.06,WNW,285,8.0,8.0,76,0.00,,,0.00,0,Wunderground v.1.15,2013-03-01 04:09:00,
2013-02-28 23:14:00,33.0,26.3,30.06,NW,308,4.0,8.0,76,0.00,,,0.00,0,Wunderground v.1.15,2013-03-01 04:14:00,
2013-02-28 23:19:00,33.0,26.3,30.05,NW,304,3.0,10.0,76,0.00,,,0.00,0,Wunderground v.1.15,2013-03-01 04:19:00,
2013-02-28 23:24:00,33.0,26.3,30.05,NNW,329,4.0,7.0,76,0.00,,,0.00,0,Wunderground v.1.15,2013-03-01 04:24:00,
2013-02-28 23:29:00,33.0,26.3,30.05,WNW,294,6.0,9.0,76,0.00,,,0.00,0,Wunderground v.1.15,2013-03-01 04:29:00,
2013-02-28 23:34:00,33.0,26.3,30.05,NW,315,5.0,9.0,76,0.00,,,0.00,0,Wunderground v.1.15,2013-03-01 04:34:00,
2013-02-28 23:39:00,32.9,26.5,30.05,NW,321,2.0,9.0,77,0.00,,,0.00,0,Wunderground v.1.15,2013-03-01 04:39:00,
2013-02-28 23:44:00,32.9,26.5,30.06,NW,320,5.0,7.0,77,0.00,,,0.00,0,Wunderground v.1.15,2013-03-01 04:44:00,
2013-02-28 23:49:00,32.9,26.2,30.05,NW,315,2.0,8.0,76,0.00,,,0.00,0,Wunderground v.1.15,2013-03-01 04:49:00,
2013-02-28 23:54:00,32.9,26.5,30.05,NNW,346,0.0,9.0,77,0.00,,,0.00,0,Wunderground v.1.15,2013-03-01 04:54:00,
2013-02-28 23:59:00,32.9,26.5,30.05,WNW,288,3.0,11.0,77,0.00,,,0.00,0,Wunderground v.1.15,2013-03-01 04:59:00,